Location: ActonStarParty
(42.4766°N, 71.4538°W)
Time: 20:34:55
(UTC-04:00)

Daily predictions for brighter satellites

Satellite Brightness Start Highest point End
(mag) Time Altitude Azimuth Time Altitude Azimuth Time Altitude Azimuth
ATLAS 5 CENTAUR R/B 3.8 20:25:57 10° NW 20:31:30 38° WSW 20:37:20 10° S
Cosmos 1975 Rocket 4.2 20:30:42 10° NNE 20:34:23 27° ENE 20:38:04 10° SE
Meteor 1-27 Rocket 3.8 20:30:57 10° N 20:36:27 59° ENE 20:41:53 10° SSE
GPS 2-05 Rocket1 4.2 20:33:49 10° WSW 20:37:04 28° S 20:40:15 10° ESE
Coronas F rocket 3.6 20:36:39 10° SW 20:38:59 28° WNW 20:41:21 10° NNW
Cosmos 1408 3.2 20:37:30 10° SSE 20:40:51 35° E 20:44:12 10° NNE
NOSS 5 (C) 4.3 20:38:12 10° SW 20:41:37 89° NW 20:44:44 10° NE
H-2A R/B 3.5 20:38:35 10° S 20:42:12 54° W 20:45:54 10° NNW
Cosmos 1378 Rocket 3.8 20:38:22 10° N 20:42:35 49° E 20:46:46 10° SSE
Cosmos 1733 Rocket 3.8 20:39:55 10° SSW 20:44:15 59° W 20:48:36 10° N
Cosmos 1908 Rocket 3.6 20:40:48 10° S 20:45:08 61° E 20:49:33 10° NNE
Cosmos 1782 3.6 20:50:29 10° NNW 20:54:26 54° W 20:58:23 10° S
Cosmos 2341 Rocket 4.1 20:51:19 10° S 20:57:27 59° E 21:03:35 10° NNE
Cosmos 1833 Rocket 3.7 20:53:53 10° N 20:58:50 31° NE 21:03:24 12° ESE
Envisat 3.1 20:55:41 10° SSE 21:00:40 62° ENE 21:05:42 10° N
Cosmos 1844 Rocket 3.8 20:57:21 10° SW 21:02:48 49° WNW 21:08:17 10° NNE
Cosmos 1825 2.1 21:00:14 10° S 21:04:02 75° E 21:07:51 10° NNE
deb Chang Zheng 4 3.8 20:59:42 10° NNE 21:04:04 54° E 21:08:24 10° S
Cosmos 2278 Rocket 2.2 21:01:48 10° SSW 21:07:29 89° WNW 21:13:12 10° NNE
Terra 4.0 21:07:06 10° ENE 21:08:24 11° ENE 21:09:41 10° NE
ERS-1 Rocket 3.2 21:04:45 10° S 21:09:46 75° WSW 21:14:50 10° NNW
Cosmos 1420 Rocket 3.9 21:08:13 10° S 21:13:26 71° ESE 21:18:38 10° NNE
Timation 2 Rocket 3.9 21:07:44 10° NNW 21:13:46 79° ENE 21:19:05 13° SSE
H-2A R/B 2.0 21:09:44 10° SSE 21:14:00 78° ENE 21:18:12 10° N
ISS -1.8 21:12:15 10° W 21:15:20 39° NNW 21:18:26 10° NE
Cosmos 1140 Rocket 3.5 21:10:40 10° NNW 21:15:50 89° ENE 21:20:40 12° SSE
Okean 3 3.5 21:13:27 10° N 21:17:45 85° W 21:21:59 10° S
APEX 3.5 21:14:31 10° SSW 21:18:28 71° ESE 21:23:43 10° NNE
Cosmos 1939 Rocket 3.0 21:15:23 10° S 21:19:16 72° WSW 21:23:14 10° NNW
Cosmos 2154 Rocket 4.2 21:13:08 10° SSW 21:19:19 75° W 21:25:33 10° N
Cosmos 1238 Rocket 3.0 21:18:48 10° NNW 21:22:14 66° W 21:26:18 10° S
COSMOS 2487 3.5 21:18:57 10° NNW 21:22:25 44° WSW 21:25:50 10° S
Cosmos 2151 Rocket 4.4 21:19:35 16° SE 21:22:30 33° E 21:26:34 10° NNE
BREEZE-M TANK 4.3 21:02:23 10° W 21:23:13 73° N 21:27:33 10° ENE
Abrixas 2.9 21:21:09 10° SW 21:24:01 40° SE 21:26:18 14° ENE
CZ-4B R/B 4.1 21:21:15 10° NNE 21:25:37 32° E 21:28:23 18° SSE
Cosmos 2082 Rocket 2.4 21:21:16 10° NNW 21:26:56 62° ENE 21:30:58 19° SE
SPOT 5 3.1 21:23:31 13° SSE 21:28:19 79° ENE 21:33:41 10° N
Lacrosse 5 2.8 21:34:37 10° S 21:38:48 26° ESE 21:43:01 10° ENE
Cosmos 1812 4.0 21:35:47 10° NNE 21:39:01 25° ENE 21:39:59 22° E
Cosmos 1184 Rocket 4.3 21:35:55 10° SSW 21:39:03 38° WNW 21:42:14 10° N
Intercosmos 25 2.8 21:38:00 13° S 21:41:03 90° W 21:44:14 10° N
UNK 4.4 21:35:05 10° NNE 21:41:13 64° ESE 21:47:00 10° S
H-2A R/B 3.2 21:40:11 20° ESE 21:42:47 29° ENE 21:47:17 10° N
Cosmos 2366 rocket 4.1 21:37:33 14° SSE 21:42:56 57° E 21:49:08 10° NNE
Cosmos 2297 3.7 21:40:28 10° SSW 21:46:11 86° WNW 21:51:57 10° NNE
MetOp-B 4.1 21:43:40 18° SSE 21:47:46 85° WSW 21:53:09 10° NNW
NOAA 11 4.3 21:46:39 24° SE 21:49:57 63° ENE 21:55:24 10° N
Meteor 1-14 Rocket 4.1 21:44:30 10° S 21:50:10 84° E 21:55:46 10° N
Okean 2 Rocket 4.0 21:49:25 10° SSW 21:53:40 48° WNW 21:57:57 10° N
BREEZE-M DEB (TANK) 3.8 21:55:45 10° NW 21:57:28 20° N 21:59:58 10° ENE
SPOT 1/Viking Rocket 3.5 21:55:17 25° SSE 21:58:22 84° ENE 22:03:38 10° NNW
Cosmos 1242 Rocket 4.2 21:58:49 10° NNW 22:02:07 31° W 22:04:46 14° SSW
USA 229 DEB 3.8 21:55:38 10° NW 22:02:46 81° SW 22:07:00 27° SSE
USA 229 3.8 21:55:44 10° NW 22:02:52 81° WSW 22:07:06 27° SSE
NOSS 8 (E) 4.5 21:59:54 10° SW 22:03:21 84° NW 22:07:05 10° NE
Meteor 2-19 Rocket 4.4 22:05:32 24° S 22:09:20 68° E 22:15:24 10° NNE
ARGOS 3.1 22:09:06 29° S 22:11:57 84° WSW 22:17:20 10° NNW
YAOGAN 6 3.6 22:10:46 25° SSW 22:12:16 40° W 22:15:38 10° NNW
Cosmos 2369 Rocket 3.5 22:14:07 22° E 22:14:07 22° E 22:17:45 10° NE
CARTOSAT-1 4.1 22:12:41 37° ESE 22:13:33 42° ENE 22:17:37 10° N
Cosmos 2218 Rocket 4.2 22:08:23 10° SSW 22:14:46 73° W 22:21:11 10° N
Lacrosse 5 rocket 1.0 22:11:15 10° SW 22:15:09 66° SE 22:18:54 10° NE
OAO 3 Rocket 3.9 22:11:04 10° WSW 22:15:30 34° S 22:15:30 34° S
SL-08 RB Rocket 3.7 22:15:38 38° S 22:17:24 85° WSW 22:22:06 10° NNW
CZ-4 R/B 3.6 22:13:25 10° NNE 22:18:07 79° ESE 22:20:06 34° S
Meteor 2-8 Rocket 4.4 22:13:10 10° N 22:19:20 84° W 22:22:44 29° S
NOSS 3-1 (A) 4.5 22:13:40 10° NNW 22:20:55 51° NE 22:25:30 26° ESE
Cosmos 1536 Rocket 4.0 22:20:54 10° NNW 22:25:19 60° W 22:27:02 35° SSW
AVUM R/B 4.2 22:22:27 10° NW 22:25:48 41° WSW 22:26:05 40° SW
Gbstr 26 Del rocket 3.1 22:21:15 10° NW 22:26:24 76° NNE 22:27:30 50° ESE
Cosmos 1727 Rocket 4.1 22:20:54 10° N 22:27:04 74° W 22:30:27 28° S
Landsat 7 3.7 22:28:19 48° SSE 22:29:41 88° ENE 22:34:28 10° NNW
Cosmos 1331 Rocket 3.9 22:27:10 25° SSW 22:30:12 88° WNW 22:35:24 10° NNE
IGS 5A 3.5 22:32:35 56° E 22:32:56 58° ENE 22:37:02 10° N
DELTA 2 DEB (DPAF) 4.1 22:34:27 56° S 22:35:23 84° WSW 22:39:54 10° NNW
CZ-4C R/B 3.3 22:36:09 68° S 22:36:37 81° WSW 22:40:50 10° NNW
Cosmos 1943 Rocket 4.2 22:40:11 12° ENE 22:40:11 12° ENE 22:41:09 10° ENE
Cosmos 1110 Rocket 4.3 22:35:43 16° SSW 22:39:50 65° WNW 22:45:02 10° NNE
ATLAS 2AS CENTAUR R/B 4.3 22:34:17 10° NNW 22:41:32 34° NE 22:46:59 16° E
Meteor 1-20 Rocket 4.4 22:39:25 26° SSW 22:42:39 68° WNW 22:48:09 10° N
Cosmos 1833 Rocket 3.6 22:37:37 10° NW 22:42:52 41° WSW 22:45:06 28° SSW
Cosmos 1400 Rocket 3.7 22:44:15 39° ENE 22:44:15 39° ENE 22:47:26 10° NNE
Terra 1.7 22:44:32 61° SSE 22:45:22 89° E 22:50:10 10° NNW
Cosmos 1536 4.0 22:49:24 32° NE 22:49:24 32° NE 22:52:03 10° NNE
NOSS 3-1 (C) 4.0 22:42:02 10° NW 22:49:37 84° NE 22:53:00 40° SE
DMSP B5D2-2 3.9 22:46:43 10° NNE 22:51:58 84° ESE 22:53:13 54° S
Cosmos 1025 Rocket 3.4 22:47:52 10° N 22:52:00 50° ENE 22:52:00 50° ENE
ISS -0.4 22:50:10 10° NW 22:52:24 17° N 22:54:39 10° NE
USA 234 3.4 22:51:13 10° ENE 22:57:31 49° SE 22:58:07 47° SSE
Cosmos 1821 Rocket 4.0 22:57:21 51° SSE 22:58:49 68° E 23:04:59 10° NNE
Meteor 2-21 4.4 22:58:14 51° SSE 22:59:51 76° E 23:06:04 10° N
Cosmos 1809 Rocket 4.3 23:03:31 52° S 23:05:11 84° E 23:11:25 10° N
Cosmos 1300 Rocket 4.5 23:04:46 36° WSW 23:05:54 44° WNW 23:10:11 10° N
Cosmos 1934 Rocket 3.9 23:05:08 56° SE 23:06:04 64° E 23:12:03 10° NNE
Spot 4 3.8 23:06:33 69° SSW 23:07:00 76° WSW 23:11:53 10° NNW
Cosmos 1486 Rocket 4.3 23:03:17 10° NNW 23:08:29 55° WSW 23:09:19 49° SW
Cosmos 1354 Rocket 3.8 23:04:43 10° NNW 23:10:01 81° ENE 23:10:29 73° SE
Cosmos 2082 Rocket 4.1 23:06:34 10° NW 23:10:28 19° W 23:12:49 15° SW
Cosmos 2285 Rocket 3.9 23:12:34 58° SSE 23:13:46 72° ESE 23:20:09 10° NNE
Okean 1 Rocket 4.1 23:13:53 37° WSW 23:14:48 42° WNW 23:19:04 10° N
Cosmos 1602 4.4 23:16:36 54° NW 23:16:36 54° NW 23:19:55 10° N
Cosmos 2123 Rocket 3.9 23:10:44 10° N 23:16:59 68° E 23:17:57 59° SE
ALOS 2 4.3 23:19:16 23° ENE 23:19:16 23° ENE 23:22:24 10° NNE
Lacrosse 5 2.4 23:16:27 10° WSW 23:21:28 58° NW 23:26:31 10° NE
H-2A R/B 3.1 23:20:50 33° SW 23:22:02 38° W 23:26:57 10° NNW
Meteor 2-4 Rocket 3.5 23:20:23 10° N 23:25:53 89° E 23:26:19 77° SSE
Cosmos 2263 4.2 23:27:22 63° E 23:27:22 63° E 23:32:40 10° NNE
Cosmos 1818 4.1 23:32:09 47° ENE 23:32:09 47° ENE 23:36:23 10° NE
Cosmos 1544 Rocket 4.1 23:36:48 53° N 23:36:48 53° N 23:40:10 10° N
Meteor 2-15 Rocket 4.3 23:33:15 10° N 23:39:25 87° W 23:40:05 73° S
SL-8 R/B 3.9 23:35:13 10° WNW 23:39:35 67° NNW 23:39:35 67° NNW
H-2A R/B 4.4 23:37:49 10° NE 23:40:06 23° ENE 23:40:06 23° ENE
Cosmos 1633 4.3 23:44:52 32° NW 23:44:52 32° NW 23:47:19 10° N
Meteor 2-15 4.5 23:39:20 10° NNW 23:45:25 67° W 23:46:10 61° SW
Iridium 4 Rocket 4.2 23:42:44 10° N 23:48:30 54° W 23:49:23 50° WSW
Cosmos 1833 4.4 23:44:00 10° NNW 23:49:35 60° ENE 23:49:49 59° ENE
Cosmos 1315 Rocket 4.1 23:51:14 37° NNW 23:51:14 37° NNW 23:53:59 10° N
Lacrosse 5 rocket 3.7 23:51:44 10° W 23:54:40 21° NNW 23:57:32 10° NNE
